Time,TemperatureF,DewpointF,PressureIn,WindDirection,WindDirectionDegrees,WindSpeedMPH,WindSpeedGustMPH,Humidity,HourlyPrecipIn,Conditions,Clouds,dailyrainin,SoftwareType,DateUTC
2013-01-06 00:02:00,49.1,39.0,30.22,NE,42,0.0,1.0,68,0.00,,OVC044,0.00,VWS V13.01,2013-01-06 06:02:00,
2013-01-06 00:07:00,49.1,39.4,30.22,NE,42,0.0,1.0,69,0.00,,OVC044,0.00,VWS V13.01,2013-01-06 06:07:00,
2013-01-06 00:12:00,49.1,39.8,30.21,NE,42,0.0,1.0,70,0.00,,OVC044,0.00,VWS V13.01,2013-01-06 06:12:00,
2013-01-06 00:17:00,49.1,39.8,30.21,NE,42,0.0,0.0,70,0.00,,OVC044,0.00,VWS V13.01,2013-01-06 06:17:00,
2013-01-06 00:22:00,49.1,39.8,30.20,NE,42,0.0,0.0,70,0.00,,OVC044,0.00,VWS V13.01,2013-01-06 06:22:00,
2013-01-06 00:27:00,49.0,39.7,30.20,NE,42,0.0,1.0,70,0.00,,OVC044,0.00,VWS V13.01,2013-01-06 06:27:00,
2013-01-06 00:32:00,49.0,39.3,30.19,NE,42,0.0,0.0,69,0.00,,OVC044,0.00,VWS V13.01,2013-01-06 06:32:00,
2013-01-06 00:37:00,49.0,39.3,30.19,NE,42,0.0,1.0,69,0.00,,OVC044,0.00,VWS V13.01,2013-01-06 06:37:00,
2013-01-06 00:42:00,49.1,39.4,30.19,NE,42,0.0,1.0,69,0.00,,OVC044,0.00,VWS V13.01,2013-01-06 06:42:00,
2013-01-06 00:47:00,49.2,39.1,30.19,NE,42,0.0,0.0,68,0.00,,OVC044,0.00,VWS V13.01,2013-01-06 06:47:00,
2013-01-06 00:52:00,49.2,39.1,30.19,NE,42,0.0,0.0,68,0.00,,OVC044,0.00,VWS V13.01,2013-01-06 06:52:00,
2013-01-06 00:57:00,49.2,38.7,30.20,NE,42,0.0,2.0,67,0.00,,OVC044,0.00,VWS V13.01,2013-01-06 06:57:00,
2013-01-06 01:02:00,49.3,38.8,30.20,NE,42,0.0,0.0,67,0.00,,OVC044,0.00,VWS V13.01,2013-01-06 07:02:00,
2013-01-06 01:07:00,49.4,39.3,30.20,NE,42,0.0,0.0,68,0.00,,OVC044,0.00,VWS V13.01,2013-01-06 07:07:00,
2013-01-06 01:12:00,49.5,39.4,30.21,NE,42,0.0,0.0,68,0.00,,OVC044,0.00,VWS V13.01,2013-01-06 07:12:00,
2013-01-06 01:18:00,49.5,39.4,30.21,NE,42,0.0,1.0,68,0.00,,OVC044,0.00,VWS V13.01,2013-01-06 07:18:00,
2013-01-06 01:23:00,49.5,39.4,30.21,NE,42,0.0,1.0,68,0.00,,OVC044,0.00,VWS V13.01,2013-01-06 07:23:00,
2013-01-06 01:28:00,49.5,39.4,30.20,NE,41,0.0,1.0,68,0.00,,OVC044,0.00,VWS V13.01,2013-01-06 07:28:00,
2013-01-06 01:33:00,49.5,39.4,30.20,NE,42,0.0,0.0,68,0.00,,OVC044,0.00,VWS V13.01,2013-01-06 07:33:00,
2013-01-06 01:38:00,49.5,39.4,30.20,NE,41,0.0,1.0,68,0.00,,OVC044,0.00,VWS V13.01,2013-01-06 07:38:00,
2013-01-06 01:43:00,49.5,39.4,30.20,NE,42,0.0,1.0,68,0.00,,OVC044,0.00,VWS V13.01,2013-01-06 07:43:00,
2013-01-06 01:48:00,49.5,39.4,30.20,NE,41,0.0,0.0,68,0.00,,OVC044,0.00,VWS V13.01,2013-01-06 07:48:00,
2013-01-06 01:53:00,49.5,39.8,30.20,NE,42,0.0,1.0,69,0.00,,OVC044,0.00,VWS V13.01,2013-01-06 07:53:00,
2013-01-06 01:58:00,49.5,39.8,30.20,NE,41,0.0,3.0,69,0.00,,OVC044,0.00,VWS V13.01,2013-01-06 07:58:00,
2013-01-06 02:03:00,49.4,39.7,30.20,NE,41,0.0,0.0,69,0.00,,OVC034,0.00,VWS V13.01,2013-01-06 08:03:00,
2013-01-06 02:08:00,49.4,39.7,30.20,NE,41,0.0,2.0,69,0.00,,OVC034,0.00,VWS V13.01,2013-01-06 08:08:00,
2013-01-06 02:13:00,49.4,40.0,30.19,NE,41,0.0,2.0,70,0.00,,OVC034,0.00,VWS V13.01,2013-01-06 08:13:00,
2013-01-06 02:18:00,49.3,39.9,30.19,NE,38,0.0,3.0,70,0.00,,OVC034,0.00,VWS V13.01,2013-01-06 08:18:00,
2013-01-06 02:23:00,49.2,40.2,30.19,NE,38,0.0,3.0,71,0.00,,OVC034,0.00,VWS V13.01,2013-01-06 08:23:00,
2013-01-06 02:29:00,49.2,40.2,30.19,NNE,33,0.0,4.0,71,0.00,,OVC034,0.00,VWS V13.01,2013-01-06 08:29:00,
2013-01-06 02:34:00,49.1,40.1,30.19,North,9,3.0,5.0,71,0.00,,OVC034,0.00,VWS V13.01,2013-01-06 08:34:00,
2013-01-06 02:39:00,48.9,40.3,30.19,NNE,12,0.0,9.0,72,0.00,,OVC034,0.00,VWS V13.01,2013-01-06 08:39:00,
2013-01-06 02:44:00,48.8,40.2,30.20,NNE,26,1.0,9.0,72,0.00,,OVC034,0.00,VWS V13.01,2013-01-06 08:44:00,
2013-01-06 02:49:00,48.8,40.2,30.20,NNE,25,0.0,0.0,72,0.00,,OVC034,0.00,VWS V13.01,2013-01-06 08:49:00,
2013-01-06 02:54:00,48.7,40.1,30.20,North,5,3.0,4.0,72,0.00,,OVC034,0.00,VWS V13.01,2013-01-06 08:54:00,
2013-01-06 02:59:00,48.7,40.5,30.19,North,360,3.0,4.0,73,0.00,,OVC034,0.00,VWS V13.01,2013-01-06 08:59:00,
2013-01-06 03:04:00,48.6,40.3,30.19,North,5,0.0,4.0,73,0.00,,OVC027,0.00,VWS V13.01,2013-01-06 09:04:00,
2013-01-06 03:09:00,48.6,40.3,30.18,NNE,26,0.0,4.0,73,0.00,,OVC027,0.00,VWS V13.01,2013-01-06 09:09:00,
2013-01-06 03:14:00,48.6,40.3,30.18,NNE,25,0.0,4.0,73,0.00,,OVC027,0.00,VWS V13.01,2013-01-06 09:14:00,
2013-01-06 03:19:00,48.5,40.2,30.18,ENE,72,0.0,4.0,73,0.00,,OVC027,0.00,VWS V13.01,2013-01-06 09:19:00,
2013-01-06 03:24:00,48.5,39.9,30.18,NE,46,0.0,4.0,72,0.00,,OVC027,0.00,VWS V13.01,2013-01-06 09:24:00,
2013-01-06 03:29:00,48.6,40.0,30.18,NE,37,0.0,4.0,72,0.00,,OVC027,0.00,VWS V13.01,2013-01-06 09:29:00,
2013-01-06 03:34:00,48.5,39.9,30.18,North,11,3.0,4.0,72,0.00,,OVC027,0.00,VWS V13.01,2013-01-06 09:34:00,
2013-01-06 03:39:00,48.5,39.9,30.17,NNE,13,0.0,4.0,72,0.00,,OVC027,0.00,VWS V13.01,2013-01-06 09:39:00,
2013-01-06 03:44:00,48.5,39.9,30.18,North,11,0.0,6.0,72,0.00,,OVC027,0.00,VWS V13.01,2013-01-06 09:44:00,
2013-01-06 03:49:00,48.5,39.9,30.18,North,11,1.0,4.0,72,0.00,,OVC027,0.00,VWS V13.01,2013-01-06 09:49:00,
2013-01-06 03:54:00,48.5,39.9,30.18,North,11,0.0,4.0,72,0.00,,OVC027,0.00,VWS V13.01,2013-01-06 09:54:00,
2013-01-06 04:00:00,48.5,40.2,30.17,North,11,0.0,4.0,73,0.00,,OVC027,0.00,VWS V13.01,2013-01-06 10:00:00,
2013-01-06 04:05:00,48.4,41.2,30.17,NE,44,0.0,3.0,76,0.00,,-RA,0.00,VWS V13.01,2013-01-06 10:05:00,
2013-01-06 04:10:00,48.2,41.3,30.17,NNW,344,0.0,3.0,77,0.00,,-RA,0.00,VWS V13.01,2013-01-06 10:10:00,
2013-01-06 04:15:00,47.8,41.6,30.17,NNW,348,0.0,3.0,79,0.00,,-RA,0.00,VWS V13.01,2013-01-06 10:15:00,
2013-01-06 04:20:00,47.5,41.7,30.17,NNW,348,0.0,0.0,80,0.00,,-RA,0.00,VWS V13.01,2013-01-06 10:20:00,
2013-01-06 04:25:00,47.3,42.1,30.17,NNW,348,0.0,0.0,82,0.00,,-RA,0.00,VWS V13.01,2013-01-06 10:25:00,
2013-01-06 04:30:00,47.1,42.2,30.17,NNW,348,0.0,0.0,83,0.00,,-RA,0.00,VWS V13.01,2013-01-06 10:30:00,
2013-01-06 04:35:00,46.9,42.0,30.17,NNW,348,0.0,0.0,83,0.01,,-RA,0.01,VWS V13.01,2013-01-06 10:35:00,
2013-01-06 04:40:00,46.7,42.1,30.18,NNW,348,0.0,0.0,84,0.01,,-RA,0.01,VWS V13.01,2013-01-06 10:40:00,
2013-01-06 04:45:00,46.6,42.0,30.17,NNW,348,0.0,2.0,84,0.01,,-RA,0.01,VWS V13.01,2013-01-06 10:45:00,
2013-01-06 04:50:00,46.4,41.8,30.17,North,355,0.0,2.0,84,0.01,,-RA,0.01,VWS V13.01,2013-01-06 10:50:00,
2013-01-06 04:55:00,46.3,41.7,30.18,North,5,0.0,3.0,84,0.01,,-RA,0.01,VWS V13.01,2013-01-06 10:55:00,
2013-01-06 05:00:00,46.2,42.0,30.17,North,9,0.0,3.0,85,0.01,,-RA,0.01,VWS V13.01,2013-01-06 11:00:00,
2013-01-06 05:05:00,46.1,41.8,30.17,NNE,18,0.0,4.0,85,0.01,,-RA,0.01,VWS V13.01,2013-01-06 11:05:00,
2013-01-06 05:11:00,46.0,41.8,30.17,North,360,0.0,5.0,85,0.01,,-RA,0.01,VWS V13.01,2013-01-06 11:11:00,
2013-01-06 05:15:00,45.9,41.7,30.17,NNW,348,0.0,6.0,85,0.01,,-RA,0.01,VWS V13.01,2013-01-06 11:15:00,
2013-01-06 05:21:00,45.8,41.9,30.17,NE,38,0.0,4.0,86,0.01,,-RA,0.01,VWS V13.01,2013-01-06 11:21:00,
2013-01-06 05:26:00,45.7,41.8,30.17,North,360,3.0,7.0,86,0.01,,-RA,0.01,VWS V13.01,2013-01-06 11:26:00,
2013-01-06 05:31:00,45.6,42.0,30.17,NNW,338,0.0,7.0,87,0.01,,OVC030,0.01,VWS V13.01,2013-01-06 11:31:00,
2013-01-06 05:36:00,45.5,41.9,30.17,NNE,17,4.0,7.0,87,0.01,,OVC030,0.01,VWS V13.01,2013-01-06 11:36:00,
2013-01-06 05:41:00,45.4,42.1,30.17,North,360,4.0,7.0,88,0.01,,OVC030,0.01,VWS V13.01,2013-01-06 11:41:00,
2013-01-06 05:46:00,45.2,41.9,30.17,North,355,1.0,7.0,88,0.01,,OVC030,0.01,VWS V13.01,2013-01-06 11:46:00,
2013-01-06 05:51:00,45.2,41.9,30.17,NNE,17,5.0,5.0,88,0.00,,OVC030,0.01,VWS V13.01,2013-01-06 11:51:00,
2013-01-06 05:56:00,45.2,41.9,30.17,NNW,344,5.0,5.0,88,0.00,,OVC030,0.01,VWS V13.01,2013-01-06 11:56:00,
2013-01-06 06:01:00,45.2,41.9,30.18,ENE,65,0.0,5.0,88,0.00,,-RA,0.01,VWS V13.01,2013-01-06 12:01:00,
2013-01-06 06:06:00,45.2,41.9,30.18,NNW,329,0.0,4.0,88,0.00,,-RA,0.01,VWS V13.01,2013-01-06 12:06:00,
2013-01-06 06:11:00,45.3,43.1,30.19,NNW,334,1.0,4.0,92,0.00,,-RA,0.01,VWS V13.01,2013-01-06 12:11:00,
2013-01-06 06:16:00,45.3,42.0,30.19,NNW,334,3.0,6.0,88,0.00,,-RA,0.01,VWS V13.01,2013-01-06 12:16:00,
2013-01-06 06:21:00,45.1,41.8,30.19,NNE,21,0.0,6.0,88,0.00,,-RA,0.01,VWS V13.01,2013-01-06 12:21:00,
2013-01-06 06:26:00,45.0,42.0,30.19,NE,38,0.0,6.0,89,0.00,,-RA,0.01,VWS V13.01,2013-01-06 12:26:00,
2013-01-06 06:31:00,44.9,41.9,30.20,North,360,0.0,7.0,89,0.00,,-RA,0.01,VWS V13.01,2013-01-06 12:31:00,
2013-01-06 06:36:00,44.7,42.0,30.20,NW,326,0.0,4.0,90,0.00,,-RA,0.01,VWS V13.01,2013-01-06 12:36:00,
2013-01-06 06:41:00,44.6,41.8,30.21,North,5,0.0,4.0,90,0.00,,-RA,0.01,VWS V13.01,2013-01-06 12:41:00,
2013-01-06 06:46:00,44.6,41.8,30.21,NE,45,0.0,4.0,90,0.00,,-RA,0.01,VWS V13.01,2013-01-06 12:46:00,
2013-01-06 06:51:00,44.6,42.1,30.21,North,355,0.0,4.0,91,0.00,,-RA,0.01,VWS V13.01,2013-01-06 12:51:00,
2013-01-06 06:56:00,44.5,42.0,30.21,North,360,0.0,4.0,91,0.00,,-RA,0.01,VWS V13.01,2013-01-06 12:56:00,
2013-01-06 07:01:00,44.5,42.0,30.22,NNW,327,0.0,5.0,91,0.00,,-RA,0.01,VWS V13.01,2013-01-06 13:01:00,
2013-01-06 07:06:00,44.5,42.0,30.22,NNE,13,0.0,5.0,91,0.00,,-RA,0.01,VWS V13.01,2013-01-06 13:06:00,
2013-01-06 07:11:00,44.5,42.0,30.23,North,360,0.0,5.0,91,0.00,,-RA,0.01,VWS V13.01,2013-01-06 13:11:00,
2013-01-06 07:16:00,44.5,42.0,30.23,North,360,0.0,5.0,91,0.00,,-RA,0.01,VWS V13.01,2013-01-06 13:16:00,
2013-01-06 07:21:00,44.6,42.4,30.23,NNW,327,0.0,4.0,92,0.00,,-RA,0.01,VWS V13.01,2013-01-06 13:21:00,
2013-01-06 07:26:00,44.5,42.3,30.23,NNE,13,0.0,5.0,92,0.00,,-RA,0.01,VWS V13.01,2013-01-06 13:26:00,
2013-01-06 07:32:00,44.5,42.3,30.23,NNW,339,0.0,0.0,92,0.01,,-RA,0.02,VWS V13.01,2013-01-06 13:32:00,
2013-01-06 07:37:00,44.5,42.3,30.23,NNE,15,2.0,3.0,92,0.01,,-RA,0.02,VWS V13.01,2013-01-06 13:37:00,
2013-01-06 07:42:00,44.4,42.2,30.23,North,360,0.0,5.0,92,0.01,,-RA,0.02,VWS V13.01,2013-01-06 13:42:00,
2013-01-06 07:47:00,44.3,42.4,30.23,NNE,16,1.0,1.0,93,0.02,,-RA,0.03,VWS V13.01,2013-01-06 13:47:00,
2013-01-06 07:52:00,44.2,42.3,30.23,NNE,16,0.0,4.0,93,0.02,,-RA,0.03,VWS V13.01,2013-01-06 13:52:00,
2013-01-06 07:58:00,44.2,42.3,30.23,NNE,19,0.0,4.0,93,0.02,,-RA,0.03,VWS V13.01,2013-01-06 13:58:00,
2013-01-06 08:03:00,44.3,42.4,30.23,NNE,19,0.0,0.0,93,0.02,,OVC034,0.03,VWS V13.01,2013-01-06 14:03:00,
2013-01-06 08:08:00,44.3,42.4,30.24,NNE,20,0.0,3.0,93,0.02,,OVC034,0.03,VWS V13.01,2013-01-06 14:08:00,
2013-01-06 08:13:00,44.3,42.4,30.24,NNE,19,0.0,3.0,93,0.02,,OVC034,0.03,VWS V13.01,2013-01-06 14:13:00,
2013-01-06 08:18:00,44.4,42.5,30.23,NNE,19,0.0,2.0,93,0.02,,OVC034,0.03,VWS V13.01,2013-01-06 14:18:00,
2013-01-06 08:23:00,44.5,42.9,30.22,NE,56,0.0,3.0,94,0.02,,OVC034,0.03,VWS V13.01,2013-01-06 14:23:00,
2013-01-06 08:28:00,44.6,43.0,30.21,ENE,69,2.0,4.0,94,0.02,,OVC034,0.03,VWS V13.01,2013-01-06 14:28:00,
2013-01-06 08:33:00,44.6,42.7,30.20,East,82,0.0,3.0,93,0.01,,OVC034,0.03,VWS V13.01,2013-01-06 14:33:00,
2013-01-06 08:38:00,44.6,42.7,30.20,ESE,115,0.0,3.0,93,0.01,,OVC034,0.03,VWS V13.01,2013-01-06 14:38:00,
2013-01-06 08:43:00,44.7,42.8,30.21,ESE,111,0.0,3.0,93,0.01,,OVC034,0.03,VWS V13.01,2013-01-06 14:43:00,
2013-01-06 08:48:00,44.6,42.7,30.24,ESE,104,1.0,2.0,93,0.01,,OVC034,0.04,VWS V13.01,2013-01-06 14:48:00,
2013-01-06 08:53:00,44.6,42.7,30.25,NNW,329,0.0,5.0,93,0.01,,OVC034,0.04,VWS V13.01,2013-01-06 14:53:00,
2013-01-06 08:58:00,44.6,42.7,30.25,NNW,335,1.0,5.0,93,0.01,,OVC034,0.04,VWS V13.01,2013-01-06 14:58:00,
2013-01-06 09:03:00,44.5,42.6,30.25,NNW,338,0.0,5.0,93,0.01,,-RA,0.04,VWS V13.01,2013-01-06 15:03:00,
2013-01-06 09:08:00,44.4,42.5,30.25,NNW,348,0.0,5.0,93,0.01,,-RA,0.04,VWS V13.01,2013-01-06 15:08:00,
2013-01-06 09:13:00,44.3,42.4,30.25,North,355,3.0,5.0,93,0.01,,-RA,0.04,VWS V13.01,2013-01-06 15:13:00,
2013-01-06 09:18:00,44.3,42.4,30.24,NNW,336,7.0,8.0,93,0.01,,-RA,0.04,VWS V13.01,2013-01-06 15:18:00,
2013-01-06 09:23:00,44.2,42.3,30.24,NNE,20,3.0,10.0,93,0.01,,-RA,0.04,VWS V13.01,2013-01-06 15:23:00,
2013-01-06 09:28:00,44.2,42.3,30.25,NNW,346,3.0,10.0,93,0.01,,-RA,0.04,VWS V13.01,2013-01-06 15:28:00,
2013-01-06 09:33:00,44.2,42.3,30.25,NNW,346,2.0,6.0,93,0.01,,-RA,0.04,VWS V13.01,2013-01-06 15:33:00,
2013-01-06 09:38:00,44.3,42.4,30.25,North,350,5.0,9.0,93,0.01,,-RA,0.04,VWS V13.01,2013-01-06 15:38:00,
2013-01-06 09:43:00,44.3,42.4,30.24,North,355,7.0,9.0,93,0.01,,-RA,0.04,VWS V13.01,2013-01-06 15:43:00,
2013-01-06 09:49:00,44.3,42.4,30.24,NE,44,0.0,4.0,93,0.00,,-RA,0.04,VWS V13.01,2013-01-06 15:49:00,
2013-01-06 09:54:00,44.3,42.4,30.23,NE,45,0.0,7.0,93,0.00,,-RA,0.04,VWS V13.01,2013-01-06 15:54:00,
2013-01-06 09:59:00,44.4,42.5,30.22,NE,34,0.0,7.0,93,0.00,,-RA,0.04,VWS V13.01,2013-01-06 15:59:00,
2013-01-06 10:04:00,44.5,42.6,30.22,North,5,0.0,3.0,93,0.00,,-RA,0.05,VWS V13.01,2013-01-06 16:04:00,
2013-01-06 10:09:00,44.5,42.6,30.23,NNW,342,0.0,5.0,93,0.01,,-RA,0.06,VWS V13.01,2013-01-06 16:09:00,
2013-01-06 10:14:00,44.5,42.6,30.24,NNW,341,0.0,5.0,93,0.02,,-RA,0.06,VWS V13.01,2013-01-06 16:14:00,
2013-01-06 10:19:00,44.6,42.7,30.24,North,11,0.0,5.0,93,0.03,,-RA,0.07,VWS V13.01,2013-01-06 16:19:00,
2013-01-06 10:24:00,44.7,42.8,30.23,NNE,19,3.0,5.0,93,0.03,,-RA,0.07,VWS V13.01,2013-01-06 16:24:00,
2013-01-06 10:29:00,44.8,42.9,30.24,NE,45,0.0,5.0,93,0.03,,-RA,0.07,VWS V13.01,2013-01-06 16:29:00,
2013-01-06 10:34:00,44.8,42.9,30.24,NNE,19,0.0,4.0,93,0.03,,-RA,0.07,VWS V13.01,2013-01-06 16:34:00,
2013-01-06 10:39:00,44.9,43.0,30.24,NNW,342,0.0,5.0,93,0.03,,-RA,0.07,VWS V13.01,2013-01-06 16:39:00,
2013-01-06 10:44:00,44.9,43.0,30.24,North,360,3.0,5.0,93,0.03,,-RA,0.07,VWS V13.01,2013-01-06 16:44:00,
2013-01-06 10:49:00,45.0,43.1,30.24,North,350,0.0,5.0,93,0.03,,-RA,0.07,VWS V13.01,2013-01-06 16:49:00,
2013-01-06 10:54:00,45.0,43.1,30.24,North,9,2.0,5.0,93,0.03,,-RA,0.07,VWS V13.01,2013-01-06 16:54:00,
2013-01-06 10:59:00,45.0,43.1,30.25,North,360,0.0,5.0,93,0.03,,-RA,0.07,VWS V13.01,2013-01-06 16:59:00,
2013-01-06 11:04:00,44.9,43.0,30.24,North,350,0.0,5.0,93,0.04,,OVC075,0.08,VWS V13.01,2013-01-06 17:04:00,
2013-01-06 11:09:00,45.0,43.1,30.24,NE,36,0.0,6.0,93,0.05,,OVC075,0.09,VWS V13.01,2013-01-06 17:09:00,
2013-01-06 11:14:00,45.0,43.1,30.24,NNW,340,0.0,6.0,93,0.05,,OVC075,0.09,VWS V13.01,2013-01-06 17:14:00,
2013-01-06 11:19:00,45.0,43.1,30.23,North,5,0.0,3.0,93,0.03,,OVC075,0.10,VWS V13.01,2013-01-06 17:19:00,
2013-01-06 11:24:00,45.2,43.6,30.23,NNE,32,4.0,6.0,94,0.03,,OVC075,0.10,VWS V13.01,2013-01-06 17:24:00,
2013-01-06 11:30:00,45.3,43.7,30.23,NNE,17,0.0,6.0,94,0.03,,OVC075,0.10,VWS V13.01,2013-01-06 17:30:00,
2013-01-06 11:35:00,45.3,43.7,30.23,NNW,348,0.0,4.0,94,0.03,,OVC075,0.10,VWS V13.01,2013-01-06 17:35:00,
2013-01-06 11:40:00,45.4,43.8,30.22,NNE,17,0.0,6.0,94,0.03,,OVC075,0.10,VWS V13.01,2013-01-06 17:40:00,
2013-01-06 11:45:00,45.5,43.9,30.22,NNW,334,0.0,6.0,94,0.03,,OVC075,0.10,VWS V13.01,2013-01-06 17:45:00,
2013-01-06 11:50:00,45.5,43.9,30.22,NNW,341,0.0,6.0,94,0.03,,OVC075,0.10,VWS V13.01,2013-01-06 17:50:00,
2013-01-06 11:55:00,45.6,44.0,30.21,NNW,333,3.0,6.0,94,0.03,,OVC075,0.10,VWS V13.01,2013-01-06 17:55:00,
2013-01-06 12:00:00,45.7,44.1,30.21,NE,38,3.0,9.0,94,0.03,,OVC075,0.10,VWS V13.01,2013-01-06 18:00:00,
2013-01-06 12:05:00,45.7,44.1,30.21,NE,55,0.0,5.0,94,0.02,,OVC028,0.10,VWS V13.01,2013-01-06 18:05:00,
2013-01-06 12:10:00,45.8,44.2,30.21,North,360,2.0,6.0,94,0.02,,OVC028,0.10,VWS V13.01,2013-01-06 18:10:00,
2013-01-06 12:15:00,45.9,44.0,30.21,NNE,32,1.0,8.0,93,0.02,,OVC028,0.10,VWS V13.01,2013-01-06 18:15:00,
2013-01-06 12:20:00,46.0,44.1,30.21,NNW,338,0.0,6.0,93,0.01,,OVC028,0.10,VWS V13.01,2013-01-06 18:20:00,
2013-01-06 12:25:00,46.3,44.7,30.20,North,360,0.0,7.0,94,0.01,,OVC028,0.10,VWS V13.01,2013-01-06 18:25:00,
2013-01-06 12:30:00,46.5,44.9,30.20,North,360,1.0,7.0,94,0.01,,OVC028,0.10,VWS V13.01,2013-01-06 18:30:00,
2013-01-06 12:35:00,46.6,45.0,30.20,NNE,30,3.0,8.0,94,0.00,,OVC020,0.10,VWS V13.01,2013-01-06 18:35:00,
2013-01-06 12:40:00,46.7,45.1,30.20,NNW,336,3.0,8.0,94,0.00,,OVC020,0.10,VWS V13.01,2013-01-06 18:40:00,
2013-01-06 12:45:00,46.9,45.3,30.21,NNE,18,1.0,8.0,94,0.00,,OVC020,0.10,VWS V13.01,2013-01-06 18:45:00,
2013-01-06 12:51:00,47.0,45.4,30.21,NNW,346,0.0,6.0,94,0.00,,OVC020,0.10,VWS V13.01,2013-01-06 18:51:00,
2013-01-06 12:56:00,47.0,45.4,30.20,NNW,344,0.0,6.0,94,0.00,,OVC020,0.10,VWS V13.01,2013-01-06 18:56:00,
2013-01-06 13:01:00,47.2,45.6,30.20,NNW,348,3.0,6.0,94,0.00,,OVC020,0.10,VWS V13.01,2013-01-06 19:01:00,
2013-01-06 13:06:00,47.3,45.7,30.19,NE,38,0.0,5.0,94,0.00,,OVC018,0.10,VWS V13.01,2013-01-06 19:06:00,
2013-01-06 13:11:00,47.4,45.8,30.18,NW,309,0.0,6.0,94,0.00,,OVC018,0.10,VWS V13.01,2013-01-06 19:11:00,
2013-01-06 13:16:00,47.5,45.9,30.18,North,5,1.0,7.0,94,0.00,,OVC018,0.10,VWS V13.01,2013-01-06 19:16:00,
2013-01-06 13:21:00,47.8,46.2,30.18,North,11,0.0,5.0,94,0.00,,OVC018,0.10,VWS V13.01,2013-01-06 19:21:00,
2013-01-06 13:26:00,48.1,46.5,30.18,NNE,24,1.0,5.0,94,0.00,,OVC018,0.10,VWS V13.01,2013-01-06 19:26:00,
2013-01-06 13:31:00,48.0,46.1,30.18,NNE,15,4.0,10.0,93,0.00,,OVC021,0.10,VWS V13.01,2013-01-06 19:31:00,
2013-01-06 13:36:00,48.1,46.2,30.18,North,355,0.0,5.0,93,0.00,,OVC021,0.10,VWS V13.01,2013-01-06 19:36:00,
2013-01-06 13:41:00,48.1,45.9,30.17,North,360,0.0,9.0,92,0.00,,OVC021,0.10,VWS V13.01,2013-01-06 19:41:00,
2013-01-06 13:46:00,48.2,46.0,30.17,NNW,340,3.0,9.0,92,0.00,,OVC021,0.10,VWS V13.01,2013-01-06 19:46:00,
2013-01-06 13:51:00,48.2,46.0,30.17,North,360,2.0,8.0,92,0.00,,OVC021,0.10,VWS V13.01,2013-01-06 19:51:00,
2013-01-06 13:57:00,48.2,46.0,30.17,North,5,0.0,9.0,92,0.00,,OVC021,0.10,VWS V13.01,2013-01-06 19:57:00,
2013-01-06 14:02:00,48.3,46.1,30.17,North,355,0.0,0.0,92,0.00,,OVC021,0.10,VWS V13.01,2013-01-06 20:02:00,
2013-01-06 14:07:00,48.4,45.9,30.18,NNW,346,2.0,5.0,91,0.00,,OVC021,0.10,VWS V13.01,2013-01-06 20:07:00,
2013-01-06 14:11:00,48.5,46.0,30.17,NNW,346,0.0,5.0,91,0.00,,OVC021,0.10,VWS V13.01,2013-01-06 20:11:00,
2013-01-06 14:13:00,48.5,46.0,30.17,ENE,61,0.0,5.0,91,0.00,,OVC021,0.10,VWS V13.01,2013-01-06 20:13:00,
2013-01-06 14:18:00,48.8,46.6,30.17,NNE,25,0.0,5.0,92,0.00,,OVC021,0.10,VWS V13.01,2013-01-06 20:18:00,
2013-01-06 14:23:00,49.1,46.6,30.17,NNE,12,0.0,5.0,91,0.00,,OVC021,0.10,VWS V13.01,2013-01-06 20:23:00,
2013-01-06 14:28:00,49.2,46.7,30.17,NE,45,0.0,5.0,91,0.00,,OVC021,0.10,VWS V13.01,2013-01-06 20:28:00,
2013-01-06 14:33:00,49.4,46.6,30.18,North,355,0.0,1.0,90,0.00,,OVC021,0.10,VWS V13.01,2013-01-06 20:33:00,
2013-01-06 14:38:00,49.5,46.7,30.17,North,355,0.0,5.0,90,0.00,,OVC021,0.10,VWS V13.01,2013-01-06 20:38:00,
2013-01-06 14:43:00,49.6,46.8,30.17,NNE,14,0.0,6.0,90,0.00,,OVC021,0.10,VWS V13.01,2013-01-06 20:43:00,
2013-01-06 14:48:00,49.7,46.6,30.17,NNW,343,2.0,4.0,89,0.00,,OVC021,0.10,VWS V13.01,2013-01-06 20:48:00,
2013-01-06 14:53:00,49.7,46.6,30.17,North,11,0.0,5.0,89,0.00,,OVC021,0.10,VWS V13.01,2013-01-06 20:53:00,
2013-01-06 14:58:00,49.8,46.7,30.18,NW,325,4.0,5.0,89,0.00,,OVC021,0.10,VWS V13.01,2013-01-06 20:58:00,
2013-01-06 15:01:00,49.8,46.4,30.18,NNE,30,0.0,5.0,88,0.00,,BKN040,0.10,VWS V13.01,2013-01-06 21:01:00,
2013-01-06 15:06:00,49.8,46.7,30.18,NNE,29,2.0,4.0,89,0.00,,BKN040,0.10,VWS V13.01,2013-01-06 21:06:00,
2013-01-06 15:11:00,49.8,46.4,30.19,NNW,338,1.0,6.0,88,0.00,,BKN040,0.10,VWS V13.01,2013-01-06 21:11:00,
2013-01-06 15:16:00,49.8,46.7,30.18,NNW,341,3.0,3.0,89,0.00,,BKN040,0.10,VWS V13.01,2013-01-06 21:16:00,
2013-01-06 15:21:00,49.8,46.7,30.18,NNE,28,0.0,4.0,89,0.00,,BKN040,0.10,VWS V13.01,2013-01-06 21:21:00,
2013-01-06 15:27:00,49.8,46.7,30.19,North,355,0.0,7.0,89,0.00,,BKN040,0.10,VWS V13.01,2013-01-06 21:27:00,
2013-01-06 15:31:00,49.7,46.6,30.19,NNW,339,1.0,2.0,89,0.00,,BKN040,0.10,VWS V13.01,2013-01-06 21:31:00,
2013-01-06 15:37:00,49.7,46.6,30.19,North,5,0.0,4.0,89,0.00,,BKN040,0.10,VWS V13.01,2013-01-06 21:37:00,
2013-01-06 15:42:00,49.7,46.9,30.19,North,360,0.0,4.0,90,0.00,,BKN040,0.10,VWS V13.01,2013-01-06 21:42:00,
2013-01-06 15:47:00,49.8,47.0,30.19,North,360,0.0,0.0,90,0.00,,BKN040,0.10,VWS V13.01,2013-01-06 21:47:00,
2013-01-06 15:52:00,49.9,47.1,30.19,North,360,1.0,3.0,90,0.00,,BKN040,0.10,VWS V13.01,2013-01-06 21:52:00,
2013-01-06 15:57:00,49.9,46.8,30.18,North,355,1.0,9.0,89,0.00,,BKN040,0.10,VWS V13.01,2013-01-06 21:57:00,
2013-01-06 16:02:00,49.9,47.1,30.18,NE,42,0.0,0.0,90,0.00,,BKN095,0.10,VWS V13.01,2013-01-06 22:02:00,
2013-01-06 16:07:00,50.0,47.2,30.17,NNW,340,0.0,5.0,90,0.00,,BKN095,0.10,VWS V13.01,2013-01-06 22:07:00,
2013-01-06 16:12:00,50.0,46.9,30.17,North,9,0.0,5.0,89,0.00,,BKN095,0.10,VWS V13.01,2013-01-06 22:12:00,
2013-01-06 16:17:00,49.9,46.8,30.18,NNE,28,0.0,0.0,89,0.00,,BKN095,0.10,VWS V13.01,2013-01-06 22:17:00,
2013-01-06 16:22:00,49.8,46.7,30.18,North,355,0.0,5.0,89,0.00,,BKN095,0.10,VWS V13.01,2013-01-06 22:22:00,
2013-01-06 16:27:00,49.8,46.7,30.19,NNW,339,2.0,5.0,89,0.00,,BKN095,0.10,VWS V13.01,2013-01-06 22:27:00,
2013-01-06 16:32:00,49.7,46.6,30.19,NNW,340,0.0,1.0,89,0.00,,BKN095,0.10,VWS V13.01,2013-01-06 22:32:00,
2013-01-06 16:37:00,49.8,46.7,30.19,North,10,0.0,4.0,89,0.00,,BKN095,0.10,VWS V13.01,2013-01-06 22:37:00,
2013-01-06 16:42:00,49.8,46.7,30.18,North,360,2.0,4.0,89,0.00,,BKN095,0.10,VWS V13.01,2013-01-06 22:42:00,
2013-01-06 16:47:00,49.8,46.7,30.18,North,11,0.0,2.0,89,0.00,,BKN095,0.10,VWS V13.01,2013-01-06 22:47:00,
2013-01-06 16:52:00,49.8,46.7,30.19,NW,320,0.0,5.0,89,0.00,,BKN095,0.10,VWS V13.01,2013-01-06 22:52:00,
2013-01-06 16:58:00,49.8,46.7,30.19,NNW,343,0.0,5.0,89,0.00,,BKN095,0.10,VWS V13.01,2013-01-06 22:58:00,
2013-01-06 17:03:00,49.7,46.6,30.18,NNW,342,0.0,0.0,89,0.00,,BKN100,0.10,VWS V13.01,2013-01-06 23:03:00,
2013-01-06 17:08:00,49.7,46.6,30.19,NNW,342,0.0,0.0,89,0.00,,BKN100,0.10,VWS V13.01,2013-01-06 23:08:00,
2013-01-06 17:13:00,49.7,46.6,30.19,NNW,343,0.0,3.0,89,0.00,,BKN100,0.10,VWS V13.01,2013-01-06 23:13:00,
2013-01-06 17:18:00,49.6,46.5,30.19,NNW,342,0.0,1.0,89,0.00,,BKN100,0.10,VWS V13.01,2013-01-06 23:18:00,
2013-01-06 17:23:00,49.6,46.5,30.19,NNW,342,0.0,1.0,89,0.00,,BKN100,0.10,VWS V13.01,2013-01-06 23:23:00,
2013-01-06 17:28:00,49.6,46.5,30.19,NNW,342,0.0,2.0,89,0.00,,BKN100,0.10,VWS V13.01,2013-01-06 23:28:00,
2013-01-06 17:33:00,49.6,46.5,30.19,NNW,343,0.0,0.0,89,0.00,,BKN100,0.10,VWS V13.01,2013-01-06 23:33:00,
2013-01-06 17:38:00,49.6,46.8,30.19,NNW,343,0.0,3.0,90,0.00,,BKN100,0.10,VWS V13.01,2013-01-06 23:38:00,
2013-01-06 17:43:00,49.5,46.7,30.19,NNW,343,0.0,3.0,90,0.00,,BKN100,0.10,VWS V13.01,2013-01-06 23:43:00,
2013-01-06 17:48:00,49.5,46.7,30.20,NNW,345,2.0,3.0,90,0.00,,BKN100,0.10,VWS V13.01,2013-01-06 23:48:00,
2013-01-06 17:53:00,49.5,46.7,30.20,NNW,345,2.0,3.0,90,0.00,,BKN100,0.10,VWS V13.01,2013-01-06 23:53:00,
2013-01-06 17:58:00,49.5,46.7,30.20,NNW,345,0.0,4.0,90,0.00,,BKN100,0.10,VWS V13.01,2013-01-06 23:58:00,
2013-01-06 18:03:00,49.5,46.7,30.21,NNW,345,0.0,0.0,90,0.00,,BKN055,0.10,VWS V13.01,2013-01-07 00:03:00,
2013-01-06 18:08:00,49.5,46.7,30.21,NNW,345,0.0,3.0,90,0.00,,BKN055,0.10,VWS V13.01,2013-01-07 00:08:00,
2013-01-06 18:14:00,49.4,46.6,30.22,NNW,344,2.0,5.0,90,0.00,,BKN055,0.10,VWS V13.01,2013-01-07 00:14:00,
2013-01-06 18:19:00,49.4,46.3,30.22,NNW,344,0.0,4.0,89,0.00,,BKN055,0.10,VWS V13.01,2013-01-07 00:19:00,
2013-01-06 18:24:00,49.3,46.2,30.22,NNW,345,0.0,4.0,89,0.00,,BKN055,0.10,VWS V13.01,2013-01-07 00:24:00,
2013-01-06 18:29:00,49.2,46.1,30.22,NNW,345,0.0,4.0,89,0.00,,BKN055,0.10,VWS V13.01,2013-01-07 00:29:00,
2013-01-06 18:34:00,49.1,46.0,30.23,NNW,344,0.0,0.0,89,0.00,,BKN055,0.10,VWS V13.01,2013-01-07 00:34:00,
2013-01-06 18:39:00,48.9,45.8,30.23,NNW,345,0.0,2.0,89,0.00,,BKN055,0.10,VWS V13.01,2013-01-07 00:39:00,
2013-01-06 18:44:00,48.7,45.9,30.23,NNW,345,0.0,2.0,90,0.00,,BKN055,0.10,VWS V13.01,2013-01-07 00:44:00,
2013-01-06 18:49:00,48.5,45.7,30.23,NNW,345,0.0,0.0,90,0.00,,BKN055,0.10,VWS V13.01,2013-01-07 00:49:00,
2013-01-06 18:54:00,48.3,45.5,30.23,NNW,345,0.0,0.0,90,0.00,,BKN055,0.10,VWS V13.01,2013-01-07 00:54:00,
2013-01-06 18:59:00,48.1,45.3,30.23,NNW,346,0.0,4.0,90,0.00,,BKN055,0.10,VWS V13.01,2013-01-07 00:59:00,
2013-01-06 19:04:00,47.9,45.1,30.23,NNW,346,0.0,0.0,90,0.00,,SCT100,0.10,VWS V13.01,2013-01-07 01:04:00,
2013-01-06 19:10:00,47.7,44.9,30.23,NNW,346,0.0,0.0,90,0.00,,SCT100,0.10,VWS V13.01,2013-01-07 01:10:00,
2013-01-06 19:15:00,47.5,44.7,30.24,NNW,346,0.0,0.0,90,0.00,,SCT100,0.10,VWS V13.01,2013-01-07 01:15:00,
2013-01-06 19:20:00,47.3,44.5,30.24,NNW,346,0.0,0.0,90,0.00,,SCT100,0.10,VWS V13.01,2013-01-07 01:20:00,
2013-01-06 19:25:00,47.1,44.3,30.24,NNW,346,0.0,0.0,90,0.00,,SCT100,0.10,VWS V13.01,2013-01-07 01:25:00,
2013-01-06 19:30:00,46.9,44.1,30.24,NNW,346,0.0,0.0,90,0.00,,SCT100,0.10,VWS V13.01,2013-01-07 01:30:00,
2013-01-06 19:35:00,46.7,43.9,30.24,NNW,346,0.0,0.0,90,0.00,,SCT100,0.10,VWS V13.01,2013-01-07 01:35:00,
2013-01-06 19:40:00,46.5,43.7,30.24,NNW,346,0.0,0.0,90,0.00,,SCT100,0.10,VWS V13.01,2013-01-07 01:40:00,
2013-01-06 19:45:00,46.3,43.5,30.24,NNW,346,0.0,0.0,90,0.00,,SCT100,0.10,VWS V13.01,2013-01-07 01:45:00,
2013-01-06 19:50:00,46.1,43.6,30.25,NNW,346,0.0,0.0,91,0.00,,SCT100,0.10,VWS V13.01,2013-01-07 01:50:00,
2013-01-06 19:55:00,45.9,43.4,30.24,NNW,346,0.0,0.0,91,0.00,,SCT100,0.10,VWS V13.01,2013-01-07 01:55:00,
2013-01-06 20:00:00,45.7,43.2,30.24,NNW,346,0.0,0.0,91,0.00,,SCT100,0.10,VWS V13.01,2013-01-07 02:00:00,
2013-01-06 20:05:00,45.6,43.1,30.24,NNW,346,0.0,0.0,91,0.00,,SCT100,0.10,VWS V13.01,2013-01-07 02:05:00,
2013-01-06 20:10:00,45.4,42.9,30.25,NNW,346,0.0,0.0,91,0.00,,SCT100,0.10,VWS V13.01,2013-01-07 02:10:00,
2013-01-06 20:15:00,45.3,42.8,30.24,NNW,346,0.0,0.0,91,0.00,,SCT100,0.10,VWS V13.01,2013-01-07 02:15:00,
2013-01-06 20:20:00,45.2,43.0,30.25,NNW,346,0.0,0.0,92,0.00,,SCT100,0.10,VWS V13.01,2013-01-07 02:20:00,
2013-01-06 20:25:00,45.0,42.8,30.24,NNW,346,0.0,0.0,92,0.00,,SCT100,0.10,VWS V13.01,2013-01-07 02:25:00,
2013-01-06 20:30:00,45.0,42.8,30.25,NNW,346,0.0,0.0,92,0.00,,SCT100,0.10,VWS V13.01,2013-01-07 02:30:00,
2013-01-06 20:35:00,45.0,42.8,30.25,NNW,346,0.0,0.0,92,0.00,,SCT100,0.10,VWS V13.01,2013-01-07 02:35:00,
2013-01-06 20:40:00,45.0,42.8,30.25,NNW,346,0.0,1.0,92,0.00,,SCT100,0.10,VWS V13.01,2013-01-07 02:40:00,
2013-01-06 20:46:00,44.9,42.7,30.25,NNW,346,0.0,1.0,92,0.00,,SCT100,0.10,VWS V13.01,2013-01-07 02:46:00,
2013-01-06 20:51:00,44.7,42.5,30.25,NNW,346,1.0,2.0,92,0.00,,SCT100,0.10,VWS V13.01,2013-01-07 02:51:00,
2013-01-06 20:56:00,44.7,42.5,30.25,NNW,346,0.0,4.0,92,0.00,,SCT100,0.10,VWS V13.01,2013-01-07 02:56:00,
2013-01-06 21:01:00,44.6,42.4,30.24,NNW,346,0.0,4.0,92,0.00,,SCT230,0.10,VWS V13.01,2013-01-07 03:01:00,
2013-01-06 21:06:00,44.5,42.3,30.24,NNW,347,2.0,2.0,92,0.00,,SCT230,0.10,VWS V13.01,2013-01-07 03:06:00,
2013-01-06 21:11:00,44.5,42.3,30.24,NNW,347,1.0,4.0,92,0.00,,SCT230,0.10,VWS V13.01,2013-01-07 03:11:00,
2013-01-06 21:16:00,44.4,42.2,30.24,NNW,347,0.0,4.0,92,0.00,,SCT230,0.10,VWS V13.01,2013-01-07 03:16:00,
2013-01-06 21:21:00,44.3,41.8,30.24,NNW,346,0.0,0.0,91,0.00,,SCT230,0.10,VWS V13.01,2013-01-07 03:21:00,
2013-01-06 21:26:00,44.3,41.8,30.25,NNW,347,0.0,1.0,91,0.00,,SCT230,0.10,VWS V13.01,2013-01-07 03:26:00,
2013-01-06 21:31:00,44.2,41.7,30.26,NNW,346,0.0,1.0,91,0.00,,SCT230,0.10,VWS V13.01,2013-01-07 03:31:00,
2013-01-06 21:36:00,44.1,41.7,30.26,NNW,347,0.0,0.0,91,0.00,,SCT230,0.10,VWS V13.01,2013-01-07 03:36:00,
2013-01-06 21:41:00,44.0,41.5,30.26,NNW,347,0.0,0.0,91,0.00,,SCT230,0.10,VWS V13.01,2013-01-07 03:41:00,
2013-01-06 21:46:00,43.8,41.3,30.26,NNW,347,0.0,0.0,91,0.00,,SCT230,0.10,VWS V13.01,2013-01-07 03:46:00,
2013-01-06 21:51:00,43.6,41.2,30.26,NNW,347,0.0,0.0,91,0.00,,SCT230,0.10,VWS V13.01,2013-01-07 03:51:00,
2013-01-06 21:56:00,43.4,41.0,30.26,NNW,346,0.0,0.0,91,0.00,,SCT230,0.10,VWS V13.01,2013-01-07 03:56:00,
2013-01-06 22:01:00,43.2,40.8,30.26,NNW,347,0.0,0.0,91,0.00,,FEW250,0.10,VWS V13.01,2013-01-07 04:01:00,
2013-01-06 22:06:00,43.1,40.7,30.26,NNW,347,0.0,0.0,91,0.00,,FEW250,0.10,VWS V13.01,2013-01-07 04:06:00,
2013-01-06 22:11:00,42.9,40.5,30.26,NNW,347,0.0,0.0,91,0.00,,FEW250,0.10,VWS V13.01,2013-01-07 04:11:00,
2013-01-06 22:16:00,42.7,40.3,30.26,NNW,347,0.0,0.0,91,0.00,,FEW250,0.10,VWS V13.01,2013-01-07 04:16:00,
2013-01-06 22:21:00,42.5,40.1,30.26,NNW,346,0.0,0.0,91,0.00,,FEW250,0.10,VWS V13.01,2013-01-07 04:21:00,
2013-01-06 22:26:00,42.4,40.2,30.26,NNW,347,0.0,0.0,92,0.00,,FEW250,0.10,VWS V13.01,2013-01-07 04:26:00,
2013-01-06 22:32:00,42.2,40.0,30.26,NNW,347,0.0,0.0,92,0.00,,FEW250,0.10,VWS V13.01,2013-01-07 04:32:00,
2013-01-06 22:37:00,42.0,39.8,30.26,NNW,346,0.0,0.0,92,0.00,,FEW250,0.10,VWS V13.01,2013-01-07 04:37:00,
2013-01-06 22:42:00,41.9,39.8,30.26,NNW,346,0.0,0.0,92,0.00,,FEW250,0.10,VWS V13.01,2013-01-07 04:42:00,
2013-01-06 22:47:00,41.8,39.7,30.25,NNW,347,0.0,0.0,92,0.00,,FEW250,0.10,VWS V13.01,2013-01-07 04:47:00,
2013-01-06 22:52:00,41.8,39.9,30.25,NNW,347,0.0,2.0,93,0.00,,FEW250,0.10,VWS V13.01,2013-01-07 04:52:00,
2013-01-06 22:57:00,41.8,39.9,30.26,NNW,347,1.0,3.0,93,0.00,,FEW250,0.10,VWS V13.01,2013-01-07 04:57:00,
2013-01-06 23:00:00,41.8,39.9,30.26,NNW,346,0.0,3.0,93,0.00,,FEW250,0.10,VWS V13.01,2013-01-07 05:00:00,
2013-01-06 23:01:00,41.9,40.0,30.26,NNW,347,2.0,3.0,93,0.00,,SCT250,0.10,VWS V13.01,2013-01-07 05:01:00,
2013-01-06 23:06:00,41.9,40.0,30.26,NNW,346,0.0,1.0,93,0.00,,SCT250,0.10,VWS V13.01,2013-01-07 05:06:00,
2013-01-06 23:11:00,42.0,40.1,30.26,NNW,346,0.0,2.0,93,0.00,,SCT250,0.10,VWS V13.01,2013-01-07 05:11:00,
2013-01-06 23:16:00,42.0,40.1,30.26,NNW,346,0.0,3.0,93,0.00,,SCT250,0.10,VWS V13.01,2013-01-07 05:16:00,
2013-01-06 23:21:00,42.0,39.8,30.26,North,355,0.0,5.0,92,0.00,,SCT250,0.10,VWS V13.01,2013-01-07 05:21:00,
2013-01-06 23:26:00,42.2,40.0,30.26,North,11,0.0,5.0,92,0.00,,SCT250,0.10,VWS V13.01,2013-01-07 05:26:00,
2013-01-06 23:31:00,42.3,40.2,30.26,NNE,19,0.0,5.0,92,0.00,,SCT250,0.10,VWS V13.01,2013-01-07 05:31:00,
2013-01-06 23:36:00,42.4,40.2,30.26,NNE,18,1.0,3.0,92,0.00,,SCT250,0.10,VWS V13.01,2013-01-07 05:36:00,
2013-01-06 23:41:00,42.4,40.0,30.27,North,11,0.0,5.0,91,0.00,,SCT250,0.10,VWS V13.01,2013-01-07 05:41:00,
2013-01-06 23:46:00,42.4,40.0,30.26,NNE,32,3.0,9.0,91,0.00,,SCT250,0.10,VWS V13.01,2013-01-07 05:46:00,
2013-01-06 23:51:00,42.4,40.0,30.26,North,355,0.0,5.0,91,0.00,,SCT250,0.10,VWS V13.01,2013-01-07 05:51:00,
2013-01-06 23:57:00,42.4,39.7,30.26,NNE,20,0.0,9.0,90,0.00,,SCT250,0.10,VWS V13.01,2013-01-07 05:57:00,